Vorticity
nan nan nan nan nan nan nan nan nan nan nan nan nan nan nan nan nan nan nan nan nan nan nan nan nan nan nan nan nan nan nan nan nan nan nan nan nan nan nan nan nan nan nan
nan 10 10 9 9 11 12 11 11 12 11 10 9 10 11 12 12 10 8 8 9 8 8 7 7 8 7 9 7 8 8 8 9 9 8 8 10 10 10 10 8 9 nan
nan 8 9 10 11 10 10 11 12 12 12 12 11 10 10 10 11 11 10 8 8 6 8 8 8 8 8 8 7 8 8 8 9 10 9 9 8 6 10 12 11 8 nan
nan 10 10 10 9 9 9 10 11 10 10 9 10 10 10 9 9 9 9 10 10 9 7 5 5 6 9 9 10 8 8 10 10 9 9 9 8 8 9 10 10 10 nan
nan 9 10 9 9 9 8 8 9 9 9 9 8 8 8 7 6 10 12 10 8 7 9 11 11 8 7 7 8 5 7 9 8 10 11 9 8 8 8 10 9 9 nan
nan 7 7 8 8 8 8 8 8 8 8 8 8 8 8 9 7 9 11 10 10 10 9 9 9 11 12 10 7 8 9 6 5 8 8 6 6 10 11 8 7 8 nan
nan 8 8 7 8 8 9 9 7 7 8 8 8 7 9 10 7 8 10 9 11 11 8 9 10 8 10 13 11 14 14 12 11 9 9 8 7 7 9 11 12 11 nan
nan 7 8 8 8 8 8 8 8 8 7 7 7 8 12 8 6 6 10 12 9 10 10 10 11 10 8 8 14 14 12 14 13 7 7 6 6 5 6 9 9 10 nan
nan 7 8 9 8 8 8 8 7 8 8 8 9 9 10 7 6 6 11 14 10 12 11 8 8 8 6 10 14 13 12 11 10 9 11 11 9 11 9 11 11 9 nan
nan 8 8 9 10 9 8 8 8 9 9 9 9 9 9 8 4 8 13 13 10 10 11 10 9 7 7 11 10 11 10 10 11 17 17 17 19 18 17 13 11 12 nan
nan 8 9 9 8 8 8 8 9 10 9 9 9 10 9 10 8 7 12 13 10 10 10 12 9 5 10 10 12 10 6 8 13 14 13 13 14 11 15 12 11 11 nan
nan 9 8 8 8 9 8 9 9 9 10 10 10 10 10 8 9 9 11 10 10 12 11 7 4 7 8 13 14 8 9 17 18 12 11 10 11 12 10 9 10 11 nan
nan 8 8 7 8 9 10 10 9 9 10 10 10 10 9 10 9 9 8 9 14 15 11 3 4 12 16 17 14 12 19 19 11 11 11 10 11 11 12 13 11 10 nan
nan 8 8 8 7 9 9 9 10 11 11 9 10 10 10 10 10 8 8 11 12 10 11 14 13 12 15 15 16 18 17 12 12 11 11 12 11 10 11 11 12 11 nan
nan 9 8 10 9 8 7 9 10 11 11 11 9 9 10 9 6 4 10 12 11 8 13 16 14 14 14 13 10 10 11 11 11 11 11 11 11 12 12 11 11 10 nan
nan 9 10 8 10 9 11 12 9 6 7 9 10 10 9 6 5 10 11 10 12 17 17 11 10 11 11 11 11 11 10 11 11 10 10 11 11 11 10 11 12 10 nan
nan 10 9 10 10 10 9 8 13 15 10 7 6 7 8 7 10 13 12 13 16 16 13 11 11 10 10 10 11 10 11 11 12 14 12 11 11 10 11 12 11 11 nan
nan 10 9 10 10 10 9 9 9 9 11 15 9 4 8 7 14 13 12 15 14 13 11 9 10 11 11 11 11 11 11 11 12 12 12 13 13 12 12 12 11 9 nan
nan 10 10 10 10 10 11 10 10 9 9 9 9 9 7 10 16 12 14 14 10 10 11 11 10 10 11 11 11 11 11 10 10 12 12 12 13 13 12 12 11 11 nan
nan 11 9 9 10 10 9 9 10 10 10 10 9 10 8 12 13 11 11 11 11 11 10 10 11 11 11 11 11 11 11 12 12 10 11 11 12 13 12 12 12 14 nan
nan 12 10 8 10 10 9 10 10 10 10 10 10 8 10 14 12 11 11 11 11 10 11 10 11 12 11 11 11 11 11 11 12 12 11 10 11 11 12 12 11 11 nan
nan 11 11 10 10 11 9 10 10 11 10 9 10 8 12 14 11 11 11 11 11 11 11 11 11 11 11 11 11 10 10 11 12 11 12 12 11 11 12 11 11 11 nan
nan 11 10 10 9 10 10 10 10 10 10 10 10 11 12 11 11 11 11 11 11 11 12 12 11 9 10 12 12 11 11 11 10 10 12 12 12 12 12 11 11 10 nan
nan 11 10 10 11 8 11 10 12 10 9 10 9 11 11 10 11 12 11 12 11 11 11 11 10 10 10 9 9 9 12 7 6 8 11 13 11 10 12 13 11 11 nan
nan 11 10 10 11 10 10 10 10 9 10 10 10 11 11 11 11 11 12 12 11 10 11 12 10 8 7 10 10 9 4 6 12 11 13 11 11 15 16 12 10 12 nan
nan nan nan nan nan nan nan nan nan nan nan nan nan nan nan nan nan nan nan nan nan nan nan nan nan nan nan nan nan nan nan nan nan nan nan nan nan nan nan nan nan nan nan
CAPE
0 0 0 0 0 0 0 0 1 0 2 1 0 0 0 0 0 0 0 0 0 0 0 0 0 0 0 0 0 0 0 0 0 0 0 0 0 0 0 0 0 0 0
0 0 0 0 0 0 0 0 0 0 0 0 0 0 0 0 0 0 0 0 0 0 0 0 0 0 0 0 0 0 0 0 0 0 0 0 0 0 0 1 0 0 0
0 0 0 0 0 0 0 0 0 0 0 0 0 0 0 0 0 0 0 0 0 0 0 0 0 0 0 0 0 1 1 0 1 4 2 6 5 2 2 6 0 6 4
0 0 0 0 0 0 0 0 0 0 0 0 0 0 0 0 0 0 0 0 0 0 0 0 0 0 0 0 0 1 4 22 28 20 28 27 1 6 7 19 8 0 6
0 0 0 0 0 0 0 0 0 0 0 0 0 0 0 0 0 0 0 0 0 0 0 0 0 5 8 5 11 14 16 24 26 32 21 7 11 20 27 16 12 5 25
0 0 0 0 0 0 0 0 0 0 0 0 0 0 0 0 0 0 0 0 0 0 1 0 0 0 0 18 29 32 45 48 52 52 56 50 35 35 32 30 20 13 18
0 0 0 0 0 0 0 0 0 0 0 0 0 0 0 0 0 0 0 0 0 0 0 0 1 1 4 3 13 28 27 35 42 44 35 20 17 10 18 17 27 38 23
0 0 0 0 0 0 0 0 0 0 0 0 0 0 0 0 0 0 0 0 0 0 0 0 1 0 1 6 8 8 7 8 15 13 18 10 9 16 15 19 25 57 37
0 0 0 0 0 0 0 0 0 0 0 0 0 0 0 0 0 0 0 0 0 0 0 0 1 1 7 23 18 31 36 39 36 55 44 51 64 75 44 28 41 16 13
0 0 0 0 0 0 0 0 0 0 0 0 0 0 0 0 0 0 0 0 0 0 0 0 1 8 24 26 17 36 41 27 25 31 32 31 33 31 52 43 35 64 30
0 0 0 0 0 0 0 0 0 0 0 0 0 0 0 0 0 0 2 0 0 0 1 4 5 13 15 25 36 29 49 57 47 19 13 16 15 36 22 24 31 50 34
0 0 0 0 0 0 0 0 0 0 0 0 0 0 0 0 0 0 1 4 9 10 14 13 9 18 39 62 65 66 67 55 27 28 23 17 21 16 11 8 11 21 8
0 0 0 0 0 0 0 0 0 0 0 0 0 0 0 0 0 1 5 13 23 20 18 22 46 45 21 20 20 24 18 9 10 9 7 7 7 3 0 0 0 0 0
0 0 0 0 0 0 0 0 0 0 0 0 0 0 0 1 3 1 1 14 20 16 27 30 20 20 10 5 5 4 3 2 11 24 23 17 15 17 13 18 22 24 23
0 0 0 0 0 0 0 0 0 0 0 0 0 0 3 3 3 17 25 28 29 17 19 11 4 8 6 3 4 5 6 7 13 22 24 24 24 24 22 24 26 29 29
0 0 0 0 0 0 0 0 0 0 0 0 0 3 4 6 15 22 28 16 16 6 7 3 5 2 3 3 2 1 1 4 3 7 16 21 25 21 20 17 24 36 34
0 0 0 0 0 0 0 0 0 0 0 0 0 1 1 7 19 17 6 9 7 6 2 0 2 1 2 3 6 8 9 18 26 33 24 18 21 23 24 25 24 33 34
0 0 0 0 0 0 0 0 0 0 0 0 0 1 2 6 20 4 4 1 2 1 3 19 17 13 12 11 8 8 8 11 15 14 18 27 30 33 33 30 31 33 33
0 0 0 0 0 0 0 0 0 0 0 0 0 1 3 7 5 2 3 3 9 11 13 9 9 8 5 3 2 3 3 2 7 13 10 18 24 32 13 26 30 32 37
0 0 0 0 0 0 0 0 0 0 0 0 1 1 1 10 0 0 2 5 7 15 8 7 6 3 2 2 2 2 1 1 2 8 9 12 11 9 25 28 28 30 28
0 0 0 0 0 0 0 0 0 0 0 0 1 0 7 4 0 3 10 17 20 10 6 4 3 2 2 1 1 2 1 1 1 1 7 10 14 15 12 21 22 24 24
0 0 0 0 0 0 0 0 0 0 0 0 0 1 0 0 0 1 6 22 12 9 5 3 2 2 1 1 1 1 1 1 1 1 1 2 8 16 16 15 12 14 14
0 0 0 0 0 0 0 0 0 0 0 0 0 0 0 2 0 3 11 18 12 8 7 4 3 3 1 6 7 4 2 2 7 7 2 0 0 1 4 5 14 13 10
0 0 0 0 0 0 0 0 0 0 0 0 0 0 1 3 2 7 15 21 12 10 10 8 7 6 7 9 13 14 13 4 4 4 8 8 0 2 1 2 3 6 6
0 0 0 0 0 0 0 0 0 0 0 1 1 2 0 5 5 6 15 21 16 10 8 8 8 7 8 9 11 13 10 0 2 4 5 7 3 1 0 0 1 2 7
0 0 0 0 0 0 0 0 0 0 1 1 1 2 3 7 9 18 21 22 14 13 6 9 7 6 7 7 7 6 5 5 5 5 5 5 3 2 4 1 1 1 3